(149725) = 2004 JO34

Discovered at Socorro on 2004-05-15 by LINEAR.

Orbit

Orbit type: Main Belt

Note: WebGL enabled browser required.

epoch2023-09-13.0
epoch JD2460200.5
perihelion date2023-08-26.64176
perihelion JD2460183.14176
argument of perihelion (°)170.97419
ascending node (°)111.58331
inclination (°)7.01030
eccentricity0.1254124
perihelion distance (AU)2.1289917
Tisserand w.r.t. Jupiter3.5
ΔV w.r.t. Earth (km/sec)9.4
semimajor axis (AU)2.4342805
mean anomaly (°)4.50457
mean daily motion (°/day)0.25950630
aphelion distance (AU)2.740
period (years)3.8
P-vector [x]0.21851000
P-vector [y]-0.90275464
P-vector [z]-0.37052321
Q-vector [x]0.96921274
Q-vector [y]0.24493330
Q-vector [z]-0.02518600
absolute magnitude16.42
phase slope0.15
uncertainty0
referenceMPEC 2024-A55
observations used520
oppositions17
arc length (days)8481
first opposition used2000
last opposition used2023
residual rms (arc-secs)0.76
perturbers coarse indicatorM-v
perturbers precise indicator003Ek
first observation date used2000-04-27.0
last observation date used2023-07-17.0
computer nameMPCLINUX
JD of orbit computation2456670.979467
perihelion JD uncertainty (days)1.1193E-04
argument of perihelion uncertainty (°)6.5216E-05
ascending node uncertainty (°)5.8639E-05
inclination uncertainty (°)5.9382E-06
eccentricity uncertainty 5.1233E-08
perihelion distance uncertainty (AU)1.2686E-07
Minimum Orbit Intersection Distances (in AU)
for orbit epoch: 2460200.5, reference: E2024-A34
Mercury1.67333
Venus1.40245
Earth1.11222
Mars0.6833
Jupiter2.38394
Saturn6.31924
Uranus15.849
Neptune27.2559

Observations

512 total observations over interval: 2000 04 27.40654 – 2023 07 17.138126
These data are available for download (format description).

Date (UT) J2000 RA J2000 Dec Magn Location Ref
2000 04 27.40654 14 45 59.31 -03 26 07.1 19.2   704 – Lincoln Laboratory ETS, New Mexico MPS 108170
2000 04 27.43463 14 45 57.57 -03 26 03.2 19.1   704 – Lincoln Laboratory ETS, New Mexico MPS 108170
2000 04 27.44719 14 45 56.84 -03 26 01.3 18.8   704 – Lincoln Laboratory ETS, New Mexico MPS 108170
2000 04 28.31276 14 45 09.21 -03 22 36.7 18.7 R 699 – Lowell Observatory-LONEOS MPS 108170
2000 04 28.33163 14 45 08.17 -03 22 33.0   699 – Lowell Observatory-LONEOS MPS 108170
2000 04 28.35049 14 45 07.08 -03 22 28.5   699 – Lowell Observatory-LONEOS MPS 108170
2000 04 28.36943 14 45 05.96 -03 22 23.4   699 – Lowell Observatory-LONEOS MPS 108170
2001 10 14.398710 01 58 02.123 -00 24 51.43 19.87 V 645 – Apache Point-Sloan Digital Sky Survey MPS 109982
2001 10 14.402182 01 58 01.921 -00 24 52.54 20.67   645 – Apache Point-Sloan Digital Sky Survey MPS 109982
2001 10 24.35368 01 48 37.12 -01 12 19.9 20.5   644 – Palomar Mountain/NEAT MPS 109982
2001 10 24.37475 01 48 35.92 -01 12 25.2 20.3   644 – Palomar Mountain/NEAT MPS 109982
2001 10 24.39577 01 48 34.74 -01 12 30.3 20.2   644 – Palomar Mountain/NEAT MPS 109982
2004 05 15.30822 17 13 06.82 -14 12 25.3 19.2   704 – Lincoln Laboratory ETS, New Mexico MPS 107475
2004 05 15.31844 17 13 06.43 -14 12 25.8 19.4   704 – Lincoln Laboratory ETS, New Mexico MPS 107475
2004 05 15.32887 17 13 06.02 -14 12 26.0 19.9   704 – Lincoln Laboratory ETS, New Mexico MPS 107475
2004 05 15.34083 17 13 05.50 -14 12 26.4 19.7   704 – Lincoln Laboratory ETS, New Mexico MPS 107475
2004 05 15.35131 17 13 05.03 -14 12 25.5 19.3   704 – Lincoln Laboratory ETS, New Mexico MPS 107475
2004 05 18.32842 17 11 00.68 -14 12 56.6 18.6   704 – Lincoln Laboratory ETS, New Mexico MPS 107475
2004 05 18.33772 17 11 00.20 -14 12 57.2 18.8   704 – Lincoln Laboratory ETS, New Mexico MPS 107475
2004 05 18.35659 17 10 59.38 -14 12 58.1 19.2   704 – Lincoln Laboratory ETS, New Mexico MPS 107475
2004 05 18.36602 17 10 58.94 -14 12 58.0 19.3   704 – Lincoln Laboratory ETS, New Mexico MPS 107475
2004 05 22.29616 17 07 54.89 -14 14 43.8 19.1   704 – Lincoln Laboratory ETS, New Mexico MPS 108170
2004 05 22.30495 17 07 54.45 -14 14 43.1 19.5   704 – Lincoln Laboratory ETS, New Mexico MPS 108170
2004 05 22.32553 17 07 53.38 -14 14 45.2 19.0   704 – Lincoln Laboratory ETS, New Mexico MPS 108170
2004 05 22.33433 17 07 52.95 -14 14 45.4 19.4   704 – Lincoln Laboratory ETS, New Mexico MPS 108170
2004 06 11.22757 16 49 09.45 -14 44 54.9 18.5   704 – Lincoln Laboratory ETS, New Mexico MPS 108715
2004 06 11.23767 16 49 08.87 -14 44 56.8 19.0   704 – Lincoln Laboratory ETS, New Mexico MPS 108715
2004 06 11.25780 16 49 07.64 -14 45 00.2 18.6   704 – Lincoln Laboratory ETS, New Mexico MPS 108715
2004 06 11.26837 16 49 07.03 -14 45 01.1 18.8   704 – Lincoln Laboratory ETS, New Mexico MPS 108715
2004 06 16.27220 16 44 23.61 -14 58 29.5 18.7   704 – Lincoln Laboratory ETS, New Mexico MPS 109060
2004 06 16.28220 16 44 23.10 -14 58 31.8 19.7   704 – Lincoln Laboratory ETS, New Mexico MPS 109060
2004 06 16.29220 16 44 22.47 -14 58 33.7 20.1   704 – Lincoln Laboratory ETS, New Mexico MPS 109060
2004 06 16.30220 16 44 21.86 -14 58 34.0 19.0   704 – Lincoln Laboratory ETS, New Mexico MPS 109060
2004 06 18.22891 16 42 38.16 -15 04 23.6 18.8   704 – Lincoln Laboratory ETS, New Mexico MPS 109595
2004 06 18.24901 16 42 37.00 -15 04 27.1 18.5   704 – Lincoln Laboratory ETS, New Mexico MPS 109595
2004 06 18.25847 16 42 36.51 -15 04 28.0 19.2   704 – Lincoln Laboratory ETS, New Mexico MPS 109595
2005 10 25.40620 03 33 55.00 +08 43 25.9 19.8 V 703 – Catalina Sky Survey MPS 146074
2005 10 25.41812 03 33 54.36 +08 43 24.2 19.1 V 703 – Catalina Sky Survey MPS 146074
2005 10 25.43018 03 33 53.67 +08 43 20.7 19.6 V 703 – Catalina Sky Survey MPS 146074
2005 10 25.44232 03 33 53.10 +08 43 17.7 19.6 V 703 – Catalina Sky Survey MPS 146074
2005 10 31.38049 03 28 34.68 +08 22 28.0 19.6 V 703 – Catalina Sky Survey MPS 147485
2005 10 31.38792 03 28 34.17 +08 22 26.1 19.8 V 703 – Catalina Sky Survey MPS 147485
2005 10 31.39537 03 28 33.88 +08 22 26.1 19.8 V 703 – Catalina Sky Survey MPS 147485
2005 10 31.40286 03 28 33.45 +08 22 23.3 18.2 V 703 – Catalina Sky Survey MPS 147485
2005 11 10.37038 03 18 43.95 +07 51 49.4 19.4 V 703 – Catalina Sky Survey MPS 149541
2005 11 10.37728 03 18 43.45 +07 51 48.8 19.4 V 703 – Catalina Sky Survey MPS 149541
2005 11 10.38420 03 18 43.05 +07 51 47.5 19.8 V 703 – Catalina Sky Survey MPS 149541
2005 11 10.39108 03 18 42.58 +07 51 48.4 19.4 V 703 – Catalina Sky Survey MPS 149541
2005 11 29.20093 03 00 45.15 +07 21 53.9 19.6 R 644 – Palomar Mountain/NEAT MPS 153680
2005 11 29.20319 03 00 45.03 +07 21 54.0 19.6 R 644 – Palomar Mountain/NEAT MPS 153680
2005 11 29.20543 03 00 44.95 +07 21 53.8 19.7 R 644 – Palomar Mountain/NEAT MPS 153680
2005 11 29.26470 03 00 41.85 +07 21 52.2 19.4 R 644 – Palomar Mountain/NEAT MPS 153680
2005 11 29.26850 03 00 41.64 +07 21 52.5 19.7 R 644 – Palomar Mountain/NEAT MPS 153680
2005 11 29.27381 03 00 41.36 +07 21 52.4 19.8 R 644 – Palomar Mountain/NEAT MPS 153680
2005 11 29.33037 03 00 38.46 +07 21 51.1 19.6 R 644 – Palomar Mountain/NEAT MPS 153680
2005 11 29.33413 03 00 38.25 +07 21 51.3 19.8 R 644 – Palomar Mountain/NEAT MPS 153680
2005 11 29.33944 03 00 37.96 +07 21 50.9 19.5 R 644 – Palomar Mountain/NEAT MPS 153680
2006 11 25.48697 10 08 49.95 +13 44 59.9 21.3 V G96 – Mt. Lemmon Survey MPS 190486
2006 11 25.49418 10 08 50.24 +13 44 58.9 22.2 V G96 – Mt. Lemmon Survey MPS 190486
2006 11 25.50151 10 08 50.56 +13 44 58.4 22.4 V G96 – Mt. Lemmon Survey MPS 190486
2006 11 25.51222 10 08 51.07 +13 44 56.5 21.7 V G96 – Mt. Lemmon Survey MPS 190486
2007 01 09.45420 10 22 28.08 +14 49 37.5   691 – Steward Observatory, Kitt Peak-Spacewatch MPS 195517
2007 01 09.47159 10 22 27.80 +14 49 42.6   691 – Steward Observatory, Kitt Peak-Spacewatch MPS 195517
2007 01 09.48896 10 22 27.51 +14 49 48.1   691 – Steward Observatory, Kitt Peak-Spacewatch MPS 195517
2007 01 17.40298 10 19 33.65 +15 34 50.0 20.8 V 691 – Steward Observatory, Kitt Peak-Spacewatch MPS 196353
2007 01 17.42034 10 19 33.13 +15 34 56.5 20.6 V 691 – Steward Observatory, Kitt Peak-Spacewatch MPS 196353
2007 01 17.43770 10 19 32.62 +15 35 02.8 20.9 V 691 – Steward Observatory, Kitt Peak-Spacewatch MPS 196353
2008 07 01.28028 19 48 03.03 -20 13 49.4 18.9   704 – Lincoln Laboratory ETS, New Mexico MPS 252391
2008 07 01.29083 19 48 02.46 -20 13 54.1 19.0   704 – Lincoln Laboratory ETS, New Mexico MPS 252391
2008 07 01.30139 19 48 01.99 -20 13 58.7 19.4   704 – Lincoln Laboratory ETS, New Mexico MPS 252391
2009 11 26.27577 04 43 27.84 +14 38 59.6 19.6 V G96 – Mt. Lemmon Survey MPS 306377
2009 11 26.28201 04 43 27.48 +14 38 59.4 19.3 V G96 – Mt. Lemmon Survey MPS 306377
2009 11 26.28840 04 43 27.04 +14 38 59.0 19.6 V G96 – Mt. Lemmon Survey MPS 306377
2009 11 26.30073 04 43 26.25 +14 38 58.7 19.3 V G96 – Mt. Lemmon Survey MPS 306377
2010 03 15.12234 04 36 50.50 +19 37 36.8 21.0 V G96 – Mt. Lemmon Survey MPS 318998
2010 03 15.12763 04 36 50.86 +19 37 38.0 21.1 V G96 – Mt. Lemmon Survey MPS 318998
2010 03 15.13307 04 36 51.26 +19 37 39.9 21.9 V G96 – Mt. Lemmon Survey MPS 318998
2010 03 15.13850 04 36 51.55 +19 37 40.8 21.9 V G96 – Mt. Lemmon Survey MPS 318998
2011 03 04.34115 11 30 25.09 +13 22 19.7 21.1 V 703 – Catalina Sky Survey MPS 373109
2011 03 04.35148 11 30 24.40 +13 22 23.7 19.5 V 703 – Catalina Sky Survey MPS 373109
2011 03 04.36182 11 30 23.83 +13 22 29.3 19.9 V 703 – Catalina Sky Survey MPS 373109
2011 03 04.37215 11 30 23.22 +13 22 34.5 19.2 V 703 – Catalina Sky Survey MPS 373109
2011 03 09.28786 11 25 58.94 +14 01 25.3 19.8 V G96 – Mt. Lemmon Survey MPS 374520
2011 03 09.29835 11 25 58.36 +14 01 30.1 20.0 V G96 – Mt. Lemmon Survey MPS 374520
2011 03 09.30882 11 25 57.75 +14 01 35.0 19.7 V G96 – Mt. Lemmon Survey MPS 374520
2011 03 09.31937 11 25 57.14 +14 01 39.9 19.5 V G96 – Mt. Lemmon Survey MPS 374520
2011 03 10.20840 11 25 08.65 +14 08 27.0 19.4 V G96 – Mt. Lemmon Survey MPS 374520
2011 03 10.21712 11 25 08.14 +14 08 30.9 19.3 V G96 – Mt. Lemmon Survey MPS 374520
2011 03 10.22590 11 25 07.68 +14 08 35.1 19.4 V G96 – Mt. Lemmon Survey MPS 374520
